Meteo Giornale » Osservazioni meteo Gran Bretagna » Londra City AP

ore: 11:50 - Osservazioni Meteo Londra City AP
Lat. 51° 30' N Lon. 0° 30' W Alt. 5 metri s.l.m.

coperto_pioggia Europe/London

17 °C

Pioggia

Temp. 24 Ore

16 °C

24 °C

Ovest

7.4 Km/h

Dew point 16 °C

Umidità 93 %

Visibilità  3 Km

Il sole sorge alle ore 05:48

Il sole tramonta alle ore 20:24

Data e Ora Cielo e Fenomeni T °C DP °C Um. % Pres. hPa Vis. km Vento km/h
Oggi h: 11:50 coperto_pioggia Pioggia 17 16 93 1013 3 O 7.4
Oggi h: 11:20 coperto_pioggia Pioggia Debole 16 16 100 1013 5 O/NO 13
Oggi h: 10:50 coperto_pioggia Pioggia 19 17 88 1013 3 O/SO 16.7
Oggi h: 10:20 coperto_pioggia Pioggia Debole 19 17 88 1012 5 SO 16.7
Oggi h: 09:50 coperto_pioggia Pioggia Debole 19 16 82 1012 5 SO 24
Oggi h: 09:20 coperto Coperto 20 15 72 1012 10 S/SO 18.5
Oggi h: 08:50 coperto_pioggia Pioggia Debole 19 15 77 1013 10 SO 20.3
Oggi h: 08:20 coperto_pioggia Pioggia Debole 19 15 77 1013 7 SO 25.9
Oggi h: 07:50 molto_nuvoloso Molto Nuvoloso 20 15 72 1013 10 SO 25.9
Oggi h: 07:20 molto_nuvoloso Molto Nuvoloso 19 15 77 1013 10 SO 24
Oggi h: 06:50 coperto Coperto 19 15 77 1013 10 S/SO 18.5
Oggi h: 06:20 coperto Coperto 19 16 82 1013 10 S/SO 20.3
Oggi h: 05:50 coperto Coperto 19 16 82 1013 10 S/SO 18.5
Oggi h: 05:20 coperto Coperto 19 16 82 1013 10 SO 20.3
Oggi h: 04:50 coperto Coperto 19 15 77 1013 10 SO 18.5
Oggi h: 04:20 coperto Coperto 19 15 77 1014 10 O/SO 22.2
Oggi h: 03:50 coperto Coperto 19 15 77 1014 10 O/SO 27.8
Oggi h: 03:20 coperto Coperto 19 15 77 1014 10 SO 18.5
Oggi h: 02:50 coperto Coperto 19 15 77 1014 10 SO 20.3
Oggi h: 02:20 coperto Coperto 19 15 77 1014 10 SO 22.2
Oggi h: 01:50 coperto Coperto 19 15 77 1014 10 S/SO 16.7
Oggi h: 01:20 coperto Coperto 19 15 77 1015 10 SO 14.8
Oggi h: 00:50 coperto Coperto 19 15 77 1015 10 SO 18.5
Oggi h: 00:20 molto_nuvoloso Molto Nuvoloso 19 15 77 1015 10 SO 20.3
Ieri h: 23:50 sereno Sereno 19 14 72 1015 10 SO 14.8
Ieri h: 23:20 nuvoloso Nuvoloso 19 14 72 1015 10 SO 18.5
Ieri h: 22:50 coperto Coperto 19 14 72 1016 10 SO 16.7
Ieri h: 22:20 coperto Coperto 20 14 68 1016 10 SO 18.5
Ieri h: 21:50 coperto Coperto 20 14 68 1016 10 SO 20.3
Ieri h: 21:20 molto_nuvoloso Molto Nuvoloso 20 14 68 1016 10 SO 18.5
Ieri h: 20:50 molto_nuvoloso Molto Nuvoloso 20 14 68 1016 10 SO 24
Ieri h: 20:20 poco_nuvoloso Poco Nuvoloso 21 14 64 1016 10 SO 20.3
Ieri h: 19:50 coperto Coperto 22 14 60 1015 10 SO 22.2
Ieri h: 19:20 molto_nuvoloso Molto Nuvoloso 22 14 60 1015 10 SO 22.2
Ieri h: 18:50 molto_nuvoloso Molto Nuvoloso 22 14 60 1015 10 SO 24
Ieri h: 18:20 molto_nuvoloso Molto Nuvoloso 23 14 56 1016 10 SO 27.8
Ieri h: 17:50 molto_nuvoloso Molto Nuvoloso 23 14 56 1016 10 SO 22.2
Ieri h: 17:20 molto_nuvoloso Molto Nuvoloso 24 15 57 1016 10 S/SO 22.2
Ieri h: 16:50 molto_nuvoloso Molto Nuvoloso 24 15 57 1016 10 O/SO 24
Ieri h: 16:20 molto_nuvoloso Molto Nuvoloso 24 15 57 1016 10 O/SO 20.3
Ieri h: 15:50 molto_nuvoloso Molto Nuvoloso 24 15 57 1016 10 O/SO 22.2
Ieri h: 15:20 molto_nuvoloso Molto Nuvoloso 24 15 57 1017 10 O/SO 24
Ieri h: 14:50 coperto Coperto 24 15 57 1017 10 O/SO 24
Ieri h: 14:20 coperto Coperto 23 15 60 1017 10 O/SO 20.3
Ieri h: 13:50 coperto Coperto 23 15 60 1017 10 O/SO 20.3
Ieri h: 13:20 coperto Coperto 23 15 60 1018 10 O/SO 20.3
Ieri h: 12:50 coperto Coperto 22 15 64 1018 10 O/SO 24